Hourly Data Report for September 09, 2017

All times are specified in Local Standard Time (LST). Add 1 hour to adjust for Daylight Saving Time where and when it is observed.

ARVIAT A
NUNAVUT

61°05'38.000" N
94°04'18.000" W
10.40 m
2300427
71174
YEK

Download Data

Hourly Data (September 2017)
Hourly Data Report for September 9, 2017
Temp Definition
°C
Dew Point Temp Definition
°C
Rel Hum Definition
%
Wind Dir Definition
10's deg

Wind Spd Definition
km/h
Visibility Definition
km
Stn Press Definition
kPa
Hmdx Definition


Wind Chill Definition


Weather Definition


TIME
00:00 Legend Double Dagger 14.5 11.3 81 26 22 14.5 99.88     LegendNANA
01:00 Legend Double Dagger 15.9 10.7 71 29 18 16.1 99.95     LegendNANA
02:00 Legend Double Dagger 14.6 10.5 76 30 21 16.1 100.03     LegendNANA
03:00 Legend Double Dagger 12.7 10.1 84 25 18 16.1 100.13     LegendNANA
04:00 Legend Double Dagger 13.3 10.0 80 26 21 16.1 100.19     LegendNANA
05:00 Legend Double Dagger 12.2 9.4 83 25 17 16.1 100.20     LegendNANA
06:00 Legend Double Dagger 11.8 9.0 83 27 21 16.1 100.27     LegendNANA
07:00 Legend Double Dagger 11.2 8.6 84 27 18 16.1 100.37     LegendNANA
08:00 Legend Double Dagger 12.3 8.6 78 29 24 16.1 100.48     LegendNANA
09:00 Legend Double Dagger 12.6 7.5 71 30 34 16.1 100.59     LegendNANA
10:00 Legend Double Dagger 11.9 6.6 70 33 39 16.1 100.72     LegendNANA
11:00 Legend Double Dagger 10.0 5.3 73 34 39 16.1 100.88     LegendNANA
12:00 Legend Double Dagger 8.7 3.7 71 33 41 16.1 101.03     LegendNANA
13:00 Legend Double Dagger 9.2 2.5 63 34 35 16.1 101.10     LegendNANA
14:00 Legend Double Dagger 9.2 1.8 60 34 34 16.1 101.24     LegendNANA
15:00 Legend Double Dagger 9.6 2.3 60 35 30 16.1 101.29     LegendNANA
16:00 Legend Double Dagger 8.6 1.7 62 34 28 16.1 101.42     LegendNANA
17:00 Legend Double Dagger 8.8 2.2 63 35 30 16.1 101.46     LegendNANA
18:00 Legend Double Dagger 8.5 1.1 60 36 21 16.1 101.56     LegendNANA
19:00 Legend Double Dagger 8.4 0.6 58 36 17 16.1 101.64     LegendNANA
20:00 Legend Double Dagger 7.5 2.0 68 36 13 16.1 101.70     LegendNANA
21:00 Legend Double Dagger 7.2 0.1 61 4 11 16.1 101.78     LegendNANA
22:00 Legend Double Dagger 6.0 2.8 80 8 8 16.1 101.83     LegendNANA
23:00 Legend Double Dagger 7.3 0.6 62 6 15 16.1 101.86     LegendNANA

Notes on Data Quality.

Legend

  • E = Estimated
  • M = Missing
  • NA = Not Available
  • ‡ = Partner data that is not subject to review by the National Climate Archives
Date modified: